KD4PYR Weather Reports


Display with metric or nautical units.
time (UTC)temp
F
wind
direction
speed
MPH
gust
MPH
rain 1hr
in
rain 24hr
in
rain mn
in
humidity
%
barometer
mb
20260831015823 78 178 0.0 0.0 0.00 0.00 0.00 73 1019.8
20260831014845 78 179 0.0 0.0 0.00 0.00 0.00 72 1019.7
20260831013816 78 179 0.0 0.0 0.00 0.00 0.00 73 1019.7
20260831012835 79 178 0.0 0.0 0.00 0.00 0.00 73 1019.7
20260831011832 79 179 0.0 1.0 0.00 0.00 0.00 71 1019.5
20260831010822 79 178 0.0 0.0 0.00 0.00 0.00 72 1019.5
20260831005826 80 178 0.0 0.0 0.00 0.00 0.00 70 1019.5
20260831004850 80 179 0.0 0.0 0.00 0.00 0.00 68 1019.3
20260831003847 80 179 0.0 0.0 0.00 0.00 0.00 67 1019.3
20260831002845 81 178 0.0 0.0 0.00 0.00 0.00 66 1019.1
20260831001836 82 179 0.0 0.0 0.00 0.00 0.00 67 1019.1
20260831000826 82 179 0.0 1.0 0.00 0.00 0.00 62 1019.2
20260830235831 83 178 0.0 1.0 0.00 0.00 0.00 62 1019.1
20260830234902 83 179 0.0 3.0 0.00 0.00 0.00 62 1019.1
20260830233830 83 178 0.0 2.0 0.00 0.00 0.00 61 1018.9
20260830232819 84 178 1.0 3.0 0.00 0.00 0.00 60 1018.9
20260830231838 84 179 2.0 4.0 0.00 0.00 0.00 58 1018.9
20260830230827 85 167 1.0 5.0 0.00 0.00 0.00 58 1018.8
20260830225831 85 170 3.0 5.0 0.00 0.00 0.00 56 1018.8
20260830224834 85 152 3.0 6.0 0.00 0.00 0.00 55 1018.7
20260830223852 85 159 4.0 8.0 0.00 0.00 0.00 55 1018.6
20260830222824 86 190 2.0 6.0 0.00 0.00 0.00 56 1018.4
20260830221903 86 182 2.0 7.0 0.00 0.00 0.00 56 1018.5
20260830220833 86 155 2.0 8.0 0.00 0.00 0.00 56 1018.6
20260830215816 86 169 3.0 6.0 0.00 0.00 0.00 55 1018.8
20260830214816 86 169 4.0 8.0 0.00 0.00 0.00 55 1019.0
20260830213835 87 152 2.0 8.0 0.00 0.00 0.00 54 1019.1
20260830212826 87 159 2.0 7.0 0.00 0.00 0.00 54 1019.1
20260830211818 87 179 3.0 9.0 0.00 0.00 0.00 52 1019.2
20260830210834 87 201 4.0 8.0 0.00 0.00 0.00 52 1019.3
20260830205818 88 163 3.0 6.0 0.00 0.00 0.00 51 1019.3
20260830204821 88 154 3.0 7.0 0.00 0.00 0.00 51 1019.4
20260830203838 88 182 2.0 9.0 0.00 0.00 0.00 52 1019.5
20260830202830 88 186 2.0 4.0 0.00 0.00 0.00 52 1019.5
20260830201848 89 188 2.0 6.0 0.00 0.00 0.00 49 1019.7
20260830200816 90 165 1.0 6.0 0.00 0.00 0.00 51 1019.9
20260830195821 90 197 2.0 7.0 0.00 0.00 0.00 48 1020.0
20260830194824 90 286 1.0 4.0 0.00 0.00 0.00 48 1020.1
20260830193819 90 314 1.0 6.0 0.00 0.00 0.00 50 1020.2
20260830192837 89 336 3.0 6.0 0.00 0.00 0.00 48 1020.4
20260830191834 88 304 2.0 6.0 0.00 0.00 0.00 50 1020.6
20260830190854 89 290 1.0 5.0 0.00 0.00 0.00 49 1020.8
20260830185834 89 315 3.0 8.0 0.00 0.00 0.00 50 1020.8
20260830184836 89 294 1.0 9.0 0.00 0.00 0.00 50 1021.0
20260830183829 88 283 1.0 7.0 0.00 0.00 0.00 52 1021.3
20260830182847 88 327 2.0 9.0 0.00 0.00 0.00 51 1021.5
20260830181847 89 244 1.0 4.0 0.00 0.00 0.00 49 1021.5
20260830180815 88 304 3.0 10.0 0.00 0.00 0.00 51 1021.6
20260830175816 88 328 1.0 10.0 0.00 0.00 0.00 48 1021.7
20260830174841 89 313 3.0 12.0 0.00 0.00 0.00 47 1021.7
20260830173833 89 302 4.0 10.0 0.00 0.00 0.00 52 1021.8
20260830172825 88 337 1.0 5.0 0.00 0.00 0.00 52 1021.9
20260830171842 87 267 4.0 7.0 0.00 0.00 0.00 57 1021.9
20260830170833 86 171 5.0 8.0 0.00 0.00 0.00 58 1022.0
20260830165815 87 160 2.0 7.0 0.00 0.00 0.00 57 1021.9
20260830164838 87 205 1.0 4.0 0.00 0.00 0.00 59 1021.9
20260830163832 86 206 1.0 5.0 0.00 0.00 0.00 60 1022.0
20260830162823 85 158 2.0 5.0 0.00 0.00 0.00 62 1021.9
20260830161841 84 173 4.0 12.0 0.00 0.00 0.00 63 1022.0
20260830160830 84 192 4.0 9.0 0.00 0.00 0.00 65 1022.0
20260830155831 83 167 4.0 6.0 0.00 0.00 0.00 67 1022.0
20260830154833 82 142 2.0 5.0 0.00 0.00 0.00 70 1022.0
20260830153826 81 172 2.0 5.0 0.00 0.00 0.00 72 1022.0
20260830152816 81 178 1.0 4.0 0.00 0.00 0.00 72 1021.9
20260830151834 80 161 2.0 7.0 0.00 0.00 0.00 72 1021.8
20260830150852 79 146 3.0 6.0 0.00 0.00 0.00 73 1021.7
20260830145831 78 171 1.0 6.0 0.00 0.00 0.00 75 1021.6
20260830144834 78 194 2.0 4.0 0.00 0.00 0.00 76 1021.5
20260830143824 77 178 2.0 6.0 0.00 0.00 0.00 76 1021.4
20260830142839 77 209 2.0 6.0 0.00 0.00 0.00 76 1021.4
20260830141830 76 176 2.0 8.0 0.00 0.00 0.00 77 1021.2
20260830140820 76 175 2.0 5.0 0.00 0.00 0.00 77 1021.0
20260830135822 75 161 2.0 6.0 0.00 0.00 0.00 77 1020.9
20260830134825 75 199 1.0 5.0 0.00 0.00 0.00 78 1020.9
20260830133819 74 199 0.0 4.0 0.00 0.00 0.00 78 1020.9
20260830132840 74 201 2.0 5.0 0.00 0.00 0.00 78 1021.0
20260830131833 73 204 2.0 6.0 0.00 0.00 0.00 78 1021.1
20260830130822 73 167 1.0 5.0 0.00 0.00 0.00 79 1021.2
20260830125825 73 142 1.0 5.0 0.00 0.00 0.00 78 1021.3
20260830124828 72 180 1.0 4.0 0.00 0.00 0.00 78 1021.2
20260830123847 72 181 1.0 5.0 0.00 0.00 0.00 78 1021.0
20260830122845 72 180 2.0 4.0 0.00 0.00 0.00 78 1020.9
20260830121816 71 180 2.0 6.0 0.00 0.00 0.00 78 1020.9
20260830120832 71 192 1.0 3.0 0.00 0.00 0.00 78 1020.8
20260830115834 70 192 1.0 4.0 0.00 0.00 0.00 79 1020.8
20260830114838 69 192 0.0 1.0 0.00 0.00 0.00 79 1020.7
20260830113837 69 194 1.0 4.0 0.00 0.00 0.00 80 1020.6
20260830112835 68 185 0.0 0.0 0.00 0.00 0.00 80 1020.6
20260830111856 67 185 0.0 0.0 0.00 0.00 0.00 81 1020.5
20260830110851 67 185 0.0 0.0 0.00 0.00 0.00 81 1020.6
20260830105816 67 185 0.0 0.0 0.00 0.00 0.00 81 1020.5
20260830104840 67 185 0.0 0.0 0.00 0.00 0.00 81 1020.4
20260830103832 67 185 0.0 0.0 0.00 0.00 0.00 80 1020.4
20260830102826 68 185 0.0 0.0 0.00 0.00 0.00 80 1020.5
20260830101819 68 185 0.0 0.0 0.00 0.00 0.00 80 1020.5
20260830100837 68 185 0.0 0.0 0.00 0.00 0.00 80 1020.5
20260830095839 68 185 0.0 0.0 0.00 0.00 0.00 80 1020.5
20260830094821 68 185 0.0 0.0 0.00 0.00 0.00 79 1020.4
20260830093840 68 185 0.0 0.0 0.00 0.00 0.00 79 1020.3
20260830092831 69 185 0.0 0.0 0.00 0.00 0.00 80 1020.4
20260830091824 69 185 0.0 0.0 0.00 0.00 0.00 80 1020.5
20260830090816 69 185 0.0 0.0 0.00 0.00 0.00 80 1020.4
20260830085819 69 185 0.0 0.0 0.00 0.00 0.00 79 1020.3
20260830084850 69 185 0.0 0.0 0.00 0.00 0.00 79 1020.4
20260830083820 69 185 0.0 0.0 0.00 0.00 0.00 79 1020.4
20260830082838 69 185 0.0 0.0 0.00 0.00 0.00 79 1020.5
20260830081829 69 185 0.0 0.0 0.00 0.00 0.00 79 1020.5
20260830080821 69 185 0.0 0.0 0.00 0.00 0.00 79 1020.6
20260830075824 69 185 0.0 0.0 0.00 0.00 0.00 79 1020.6
20260830074826 69 185 0.0 0.0 0.00 0.00 0.00 79 1020.5
20260830073818 69 185 0.0 0.0 0.00 0.00 0.00 78 1020.6
20260830072837 69 185 0.0 0.0 0.00 0.00 0.00 79 1020.7
20260830071836 68 185 0.0 0.0 0.00 0.00 0.00 79 1020.8
20260830070827 68 185 0.0 0.0 0.00 0.00 0.00 80 1020.8
20260830065830 67 185 0.0 0.0 0.00 0.00 0.00 80 1020.8
20260830064826 67 185 0.0 0.0 0.00 0.00 0.00 80 1020.9
20260830063845 67 185 0.0 0.0 0.00 0.00 0.00 80 1021.0
20260830062842 67 185 0.0 0.0 0.00 0.00 0.00 80 1021.0
20260830061841 67 185 0.0 0.0 0.00 0.00 0.00 80 1021.1
20260830060838 68 185 0.0 0.0 0.00 0.00 0.00 79 1021.2
20260830055840 68 185 0.0 0.0 0.00 0.00 0.00 79 1021.3
20260830054823 68 185 0.0 0.0 0.00 0.00 0.00 79 1021.2
20260830053843 67 185 0.0 0.0 0.00 0.00 0.00 79 1021.2
20260830052841 67 185 0.0 0.0 0.00 0.00 0.00 80 1021.0
20260830051832 67 185 0.0 0.0 0.00 0.00 0.00 80 1020.9
20260830050824 67 185 0.0 0.0 0.00 0.00 0.00 80 1021.0
20260830045843 67 185 0.0 0.0 0.00 0.00 0.00 80 1021.0
20260830044826 67 185 0.0 0.0 0.00 0.00 0.00 80 1021.1
20260830043823 68 185 0.0 0.0 0.00 0.00 0.00 80 1021.0
20260830042839 68 185 0.0 0.0 0.00 0.00 0.00 80 1020.9
20260830041835 68 185 0.0 0.0 0.00 0.00 0.00 79 1021.0
20260830040829 68 185 0.0 0.0 0.00 0.00 0.00 79 1021.0
20260830035832 68 185 0.0 0.0 0.00 0.00 0.00 79 1021.0
20260830034834 69 185 0.0 0.0 0.00 0.00 0.00 79 1021.0
20260830033825 69 185 0.0 0.0 0.00 0.00 0.00 79 1021.1
20260830032816 69 185 0.0 0.0 0.00 0.00 0.00 78 1021.0
20260830031833 69 185 0.0 0.0 0.00 0.00 0.00 78 1020.9
20260830030851 70 185 0.0 0.0 0.00 0.00 0.00 79 1020.7
20260830025832 70 185 0.0 0.0 0.00 0.00 0.00 79 1020.7
20260830024834 70 185 0.0 0.0 0.00 0.00 0.00 79 1020.7
20260830023827 70 185 0.0 0.0 0.00 0.00 0.00 78 1020.8
20260830022846 71 185 0.0 0.0 0.00 0.00 0.00 78 1020.8
20260830021816 71 185 0.0 0.0 0.00 0.00 0.00 77 1020.7
20260830020834 71 185 0.0 0.0 0.00 0.00 0.00 76 1020.8